Time,TemperatureF,DewpointF,PressureIn,WindDirection,WindDirectionDegrees,WindSpeedMPH,WindSpeedGustMPH,Humidity,HourlyPrecipIn,Conditions,Clouds,dailyrainin,SoftwareType,DateUTC
2013-09-30 00:01:00,55.0,55.0,30.10,NNE,22,0.0,0.0,100,0.00,CLR,SKC,0.00,WeatherDisplay:10.37,2013-09-30 04:01:00,
2013-09-30 00:02:00,56.0,56.0,30.09,NNE,22,0.0,0.0,100,0.00,CLR,SKC,0.00,WeatherDisplay:10.37,2013-09-30 04:02:00,
2013-09-30 00:07:00,55.0,55.0,30.09,NNE,22,0.0,0.0,100,0.00,CLR,SKC,0.00,WeatherDisplay:10.37,2013-09-30 04:07:00,
2013-09-30 00:12:00,56.0,56.0,30.09,NNE,22,0.0,0.0,100,0.00,CLR,SKC,0.00,WeatherDisplay:10.37,2013-09-30 04:12:00,
2013-09-30 00:17:00,55.0,55.0,30.09,NNE,22,0.0,0.0,100,0.00,CLR,SKC,0.00,WeatherDisplay:10.37,2013-09-30 04:17:00,
2013-09-30 00:22:00,55.0,55.0,30.10,NNE,22,0.0,0.0,100,0.00,CLR,SKC,0.00,WeatherDisplay:10.37,2013-09-30 04:22:00,
2013-09-30 00:27:00,55.0,55.0,30.10,NNE,22,0.0,0.0,100,0.00,CLR,SKC,0.00,WeatherDisplay:10.37,2013-09-30 04:27:00,
2013-09-30 00:32:00,55.0,55.0,30.09,NNE,22,0.0,0.0,100,0.00,CLR,SKC,0.00,WeatherDisplay:10.37,2013-09-30 04:32:00,
2013-09-30 00:37:00,55.0,55.0,30.09,NNE,22,2.3,2.3,100,0.00,CLR,SKC,0.00,WeatherDisplay:10.37,2013-09-30 04:37:00,
2013-09-30 00:42:00,56.0,56.0,30.09,NNE,22,3.5,3.5,100,0.00,CLR,SKC,0.00,WeatherDisplay:10.37,2013-09-30 04:42:00,
2013-09-30 00:47:00,55.0,55.0,30.09,NNE,22,3.5,3.5,100,0.00,CLR,SKC,0.00,WeatherDisplay:10.37,2013-09-30 04:47:00,
2013-09-30 00:52:00,56.0,56.0,30.09,NNE,22,2.3,2.3,100,0.00,CLR,SKC,0.00,WeatherDisplay:10.37,2013-09-30 04:52:00,
2013-09-30 00:57:00,55.0,55.0,30.09,NNE,22,2.3,2.3,100,0.00,CLR,SKC,0.00,WeatherDisplay:10.37,2013-09-30 04:57:00,
2013-09-30 01:02:00,56.0,56.0,30.09,NNE,22,2.3,2.3,100,0.00,CLR,SKC,0.00,WeatherDisplay:10.37,2013-09-30 05:02:00,
2013-09-30 01:07:00,55.0,55.0,30.09,NNE,22,2.3,2.3,100,0.00,CLR,SKC,0.00,WeatherDisplay:10.37,2013-09-30 05:07:00,
2013-09-30 01:12:00,56.0,56.0,30.09,NNE,22,2.3,2.3,100,0.00,CLR,SKC,0.00,WeatherDisplay:10.37,2013-09-30 05:12:00,
2013-09-30 01:17:00,55.0,55.0,30.09,NNE,22,2.0,2.0,100,0.00,CLR,SKC,0.00,WeatherDisplay:10.37,2013-09-30 05:17:00,
2013-09-30 01:22:00,55.0,55.0,30.09,NNE,22,2.3,2.3,100,0.00,CLR,SKC,0.00,WeatherDisplay:10.37,2013-09-30 05:22:00,
2013-09-30 01:27:00,55.0,55.0,30.09,NNE,22,2.3,2.3,100,0.00,CLR,SKC,0.00,WeatherDisplay:10.37,2013-09-30 05:27:00,
2013-09-30 01:32:00,55.0,55.0,30.09,NNE,22,3.5,3.5,100,0.00,CLR,SKC,0.00,WeatherDisplay:10.37,2013-09-30 05:32:00,
2013-09-30 01:37:00,55.0,55.0,30.09,NNE,22,2.3,2.3,100,0.00,CLR,SKC,0.00,WeatherDisplay:10.37,2013-09-30 05:37:00,
2013-09-30 01:42:00,55.0,55.0,30.09,NNE,22,1.2,0.0,100,0.00,CLR,SKC,0.00,WeatherDisplay:10.37,2013-09-30 05:42:00,
2013-09-30 01:47:00,55.0,55.0,30.09,NNE,22,1.2,0.0,100,0.00,CLR,SKC,0.00,WeatherDisplay:10.37,2013-09-30 05:47:00,
2013-09-30 01:52:00,55.0,55.0,30.09,NNE,22,2.3,2.3,100,0.00,CLR,SKC,0.00,WeatherDisplay:10.37,2013-09-30 05:52:00,
2013-09-30 01:57:00,55.0,55.0,30.09,NNE,22,2.3,2.3,100,0.00,CLR,SKC,0.00,WeatherDisplay:10.37,2013-09-30 05:57:00,
2013-09-30 02:02:00,55.0,55.0,30.10,NNE,22,1.2,0.0,100,0.00,CLR,SKC,0.00,WeatherDisplay:10.37,2013-09-30 06:02:00,
2013-09-30 02:07:00,55.0,55.0,30.10,NNE,22,0.0,0.0,100,0.00,CLR,SKC,0.00,WeatherDisplay:10.37,2013-09-30 06:07:00,
2013-09-30 02:12:00,55.0,55.0,30.11,NNE,22,0.0,0.0,100,0.00,CLR,SKC,0.00,WeatherDisplay:10.37,2013-09-30 06:12:00,
2013-09-30 02:17:00,55.0,55.0,30.11,NNE,22,3.5,3.5,100,0.00,CLR,SKC,0.00,WeatherDisplay:10.37,2013-09-30 06:17:00,
2013-09-30 02:22:00,55.0,55.0,30.11,NNE,22,2.3,2.3,100,0.00,CLR,SKC,0.00,WeatherDisplay:10.37,2013-09-30 06:22:00,
2013-09-30 02:27:00,55.0,55.0,30.11,NNE,22,0.0,0.0,100,0.00,CLR,SKC,0.00,WeatherDisplay:10.37,2013-09-30 06:27:00,
2013-09-30 02:32:00,55.0,55.0,30.11,NNE,22,0.0,0.0,100,0.00,CLR,SKC,0.00,WeatherDisplay:10.37,2013-09-30 06:32:00,
2013-09-30 02:37:00,55.0,55.0,30.11,NNE,22,2.3,2.3,100,0.00,CLR,SKC,0.00,WeatherDisplay:10.37,2013-09-30 06:37:00,
2013-09-30 02:42:00,55.0,55.0,30.11,NNE,22,3.5,3.5,100,0.00,CLR,SKC,0.00,WeatherDisplay:10.37,2013-09-30 06:42:00,
2013-09-30 02:47:00,55.0,55.0,30.11,NNE,22,3.5,3.5,100,0.00,CLR,SKC,0.00,WeatherDisplay:10.37,2013-09-30 06:47:00,
2013-09-30 02:52:00,55.0,55.0,30.10,NNE,22,3.5,3.5,100,0.00,CLR,SKC,0.00,WeatherDisplay:10.37,2013-09-30 06:52:00,
2013-09-30 02:57:00,55.0,55.0,30.10,NNE,22,2.3,2.3,100,0.00,CLR,SKC,0.00,WeatherDisplay:10.37,2013-09-30 06:57:00,
2013-09-30 03:02:00,55.0,55.0,30.10,NNE,22,0.0,0.0,100,0.00,CLR,SKC,0.00,WeatherDisplay:10.37,2013-09-30 07:02:00,
2013-09-30 03:07:00,55.0,55.0,30.10,NNE,22,0.0,0.0,100,0.00,CLR,SKC,0.00,WeatherDisplay:10.37,2013-09-30 07:07:00,
2013-09-30 03:12:00,55.0,55.0,30.10,NNE,22,2.3,2.3,100,0.00,CLR,SKC,0.00,WeatherDisplay:10.37,2013-09-30 07:12:00,
2013-09-30 03:17:00,55.0,55.0,30.10,NNE,22,1.0,1.0,100,0.00,CLR,SKC,0.00,WeatherDisplay:10.37,2013-09-30 07:17:00,
2013-09-30 03:22:00,55.0,55.0,30.10,NNE,22,0.0,0.0,100,0.00,CLR,SKC,0.00,WeatherDisplay:10.37,2013-09-30 07:22:00,
2013-09-30 03:27:00,54.0,54.0,30.10,NNE,22,0.0,0.0,100,0.00,CLR,SKC,0.00,WeatherDisplay:10.37,2013-09-30 07:27:00,
2013-09-30 03:32:00,55.0,55.0,30.10,NNE,22,0.0,0.0,100,0.00,CLR,SKC,0.00,WeatherDisplay:10.37,2013-09-30 07:32:00,
2013-09-30 03:37:00,54.0,54.0,30.10,NNE,22,2.3,2.3,100,0.00,CLR,SKC,0.00,WeatherDisplay:10.37,2013-09-30 07:37:00,
2013-09-30 03:42:00,55.0,55.0,30.10,NNE,22,0.0,0.0,100,0.00,CLR,SKC,0.00,WeatherDisplay:10.37,2013-09-30 07:42:00,
2013-09-30 03:47:00,54.0,54.0,30.10,NNE,22,3.5,3.5,100,0.00,CLR,SKC,0.00,WeatherDisplay:10.37,2013-09-30 07:47:00,
2013-09-30 03:52:00,55.0,55.0,30.10,NNE,22,2.3,2.3,100,0.00,CLR,SKC,0.00,WeatherDisplay:10.37,2013-09-30 07:52:00,
2013-09-30 03:57:00,54.0,54.0,30.10,NNE,22,3.5,3.5,100,0.00,CLR,SKC,0.00,WeatherDisplay:10.37,2013-09-30 07:57:00,
2013-09-30 04:02:00,55.0,55.0,30.10,NNE,22,2.3,2.3,100,0.00,CLR,SKC,0.00,WeatherDisplay:10.37,2013-09-30 08:02:00,
2013-09-30 04:07:00,55.0,55.0,30.10,North,360,2.3,2.3,100,0.00,CLR,SKC,0.00,WeatherDisplay:10.37,2013-09-30 08:07:00,
2013-09-30 04:12:00,55.0,55.0,30.10,North,360,2.3,2.3,100,0.00,CLR,SKC,0.00,WeatherDisplay:10.37,2013-09-30 08:12:00,
2013-09-30 04:17:00,55.0,55.0,30.10,North,360,0.0,0.0,100,0.00,CLR,SKC,0.00,WeatherDisplay:10.37,2013-09-30 08:17:00,
2013-09-30 04:22:00,55.0,55.0,30.10,North,360,0.0,0.0,100,0.00,CLR,SKC,0.00,WeatherDisplay:10.37,2013-09-30 08:22:00,
2013-09-30 04:27:00,54.0,54.0,30.10,North,360,0.0,0.0,100,0.00,CLR,SKC,0.00,WeatherDisplay:10.37,2013-09-30 08:27:00,
2013-09-30 04:32:00,54.0,54.0,30.10,North,360,0.0,0.0,100,0.00,CLR,SKC,0.00,WeatherDisplay:10.37,2013-09-30 08:32:00,
2013-09-30 04:37:00,54.0,54.0,30.10,North,360,0.0,0.0,100,0.00,CLR,SKC,0.00,WeatherDisplay:10.37,2013-09-30 08:37:00,
2013-09-30 04:42:00,54.0,54.0,30.10,North,360,0.0,0.0,100,0.00,CLR,SKC,0.00,WeatherDisplay:10.37,2013-09-30 08:42:00,
2013-09-30 04:47:00,54.0,54.0,30.10,North,360,0.0,0.0,100,0.00,CLR,SKC,0.00,WeatherDisplay:10.37,2013-09-30 08:47:00,
2013-09-30 04:52:00,54.0,54.0,30.10,North,360,0.0,0.0,100,0.00,CLR,SKC,0.00,WeatherDisplay:10.37,2013-09-30 08:52:00,
2013-09-30 04:58:00,54.0,54.0,30.10,North,360,0.0,0.0,100,0.00,CLR,SKC,0.00,WeatherDisplay:10.37,2013-09-30 08:58:00,
2013-09-30 05:03:00,54.0,54.0,30.10,North,360,0.0,0.0,100,0.00,CLR,SKC,0.00,WeatherDisplay:10.37,2013-09-30 09:03:00,
2013-09-30 05:08:00,54.0,54.0,30.10,North,360,0.0,0.0,100,0.00,CLR,SKC,0.00,WeatherDisplay:10.37,2013-09-30 09:08:00,
2013-09-30 05:13:00,54.0,54.0,30.10,North,360,0.0,0.0,100,0.00,CLR,SKC,0.00,WeatherDisplay:10.37,2013-09-30 09:13:00,
2013-09-30 05:18:00,54.0,54.0,30.10,North,360,3.5,3.5,100,0.00,CLR,SKC,0.00,WeatherDisplay:10.37,2013-09-30 09:18:00,
2013-09-30 05:23:00,55.0,55.0,30.11,North,360,3.5,3.5,100,0.00,CLR,SKC,0.00,WeatherDisplay:10.37,2013-09-30 09:23:00,
2013-09-30 05:28:00,55.0,55.0,30.11,North,360,3.5,3.5,100,0.00,CLR,SKC,0.00,WeatherDisplay:10.37,2013-09-30 09:28:00,
2013-09-30 05:33:00,55.0,55.0,30.10,North,360,3.5,3.5,100,0.00,CLR,SKC,0.00,WeatherDisplay:10.37,2013-09-30 09:33:00,
2013-09-30 05:38:00,55.0,55.0,30.10,North,360,3.5,3.5,100,0.00,CLR,SKC,0.00,WeatherDisplay:10.37,2013-09-30 09:38:00,
2013-09-30 05:43:00,55.0,55.0,30.10,North,360,2.3,2.3,100,0.00,CLR,SKC,0.00,WeatherDisplay:10.37,2013-09-30 09:43:00,
2013-09-30 05:48:00,55.0,55.0,30.10,North,360,3.5,3.5,100,0.00,CLR,SKC,0.00,WeatherDisplay:10.37,2013-09-30 09:48:00,
2013-09-30 05:53:00,55.0,55.0,30.11,North,360,3.5,3.5,100,0.00,CLR,SKC,0.00,WeatherDisplay:10.37,2013-09-30 09:53:00,
2013-09-30 05:58:00,55.0,55.0,30.11,North,360,2.3,2.3,100,0.00,CLR,SKC,0.00,WeatherDisplay:10.37,2013-09-30 09:58:00,
2013-09-30 06:03:00,54.0,54.0,30.11,North,360,1.2,1.2,100,0.00,CLR,SKC,0.00,WeatherDisplay:10.37,2013-09-30 10:03:00,
2013-09-30 06:08:00,54.0,54.0,30.11,North,360,0.0,0.0,100,0.00,CLR,SKC,0.00,WeatherDisplay:10.37,2013-09-30 10:08:00,
2013-09-30 06:13:00,54.0,54.0,30.11,North,360,0.0,0.0,100,0.00,CLR,SKC,0.00,WeatherDisplay:10.37,2013-09-30 10:13:00,
2013-09-30 06:18:00,54.0,54.0,30.11,North,360,0.0,0.0,100,0.00,CLR,SKC,0.00,WeatherDisplay:10.37,2013-09-30 10:18:00,
2013-09-30 06:23:00,54.0,54.0,30.11,North,360,0.0,0.0,100,0.00,CLR,SKC,0.00,WeatherDisplay:10.37,2013-09-30 10:23:00,
2013-09-30 06:28:00,54.0,54.0,30.11,North,360,0.0,0.0,100,0.00,CLR,SKC,0.00,WeatherDisplay:10.37,2013-09-30 10:28:00,
2013-09-30 06:33:00,54.0,54.0,30.11,North,360,0.0,0.0,100,0.00,CLR,SKC,0.00,WeatherDisplay:10.37,2013-09-30 10:33:00,
2013-09-30 06:38:00,54.0,54.0,30.11,North,360,3.0,3.0,100,0.00,CLR,SKC,0.00,WeatherDisplay:10.37,2013-09-30 10:38:00,
2013-09-30 06:43:00,54.0,54.0,30.12,North,360,0.0,0.0,100,0.00,CLR,SKC,0.00,WeatherDisplay:10.37,2013-09-30 10:43:00,
2013-09-30 06:48:00,54.0,54.0,30.12,North,360,0.0,0.0,100,0.00,CLR,SKC,0.00,WeatherDisplay:10.37,2013-09-30 10:48:00,
2013-09-30 06:53:00,54.0,54.0,30.12,North,360,0.0,0.0,100,0.00,CLR,SKC,0.00,WeatherDisplay:10.37,2013-09-30 10:53:00,
2013-09-30 06:58:00,54.0,54.0,30.12,North,360,0.0,0.0,100,0.00,CLR,SKC,0.00,WeatherDisplay:10.37,2013-09-30 10:58:00,
2013-09-30 07:03:00,54.0,54.0,30.13,North,360,0.0,0.0,100,0.00,CLR,SKC,0.00,WeatherDisplay:10.37,2013-09-30 11:03:00,
2013-09-30 07:08:00,53.0,53.0,30.13,North,360,0.0,0.0,100,0.00,CLR,SKC,0.00,WeatherDisplay:10.37,2013-09-30 11:08:00,
2013-09-30 07:13:00,53.0,53.0,30.13,North,360,0.0,0.0,100,0.00,CLR,SKC,0.00,WeatherDisplay:10.37,2013-09-30 11:13:00,
2013-09-30 07:18:00,53.0,53.0,30.13,North,360,0.0,0.0,100,0.00,CLR,SKC,0.00,WeatherDisplay:10.37,2013-09-30 11:18:00,
2013-09-30 07:23:00,53.0,53.0,30.13,North,360,3.5,3.5,100,0.00,CLR,SKC,0.00,WeatherDisplay:10.37,2013-09-30 11:23:00,
2013-09-30 07:28:00,54.0,54.0,30.13,North,360,2.3,0.0,100,0.00,CLR,SKC,0.00,WeatherDisplay:10.37,2013-09-30 11:28:00,
2013-09-30 07:33:00,54.0,54.0,30.13,North,360,3.5,3.5,100,0.00,CLR,SKC,0.00,WeatherDisplay:10.37,2013-09-30 11:33:00,
2013-09-30 07:38:00,54.0,54.0,30.13,North,360,3.5,3.5,100,0.00,CLR,SKC,0.00,WeatherDisplay:10.37,2013-09-30 11:38:00,
2013-09-30 07:43:00,55.0,55.0,30.13,North,360,3.5,3.5,100,0.00,CLR,SKC,0.00,WeatherDisplay:10.37,2013-09-30 11:43:00,
2013-09-30 07:48:00,55.0,55.0,30.13,NNE,22,3.5,3.5,100,0.00,CLR,SKC,0.00,WeatherDisplay:10.37,2013-09-30 11:48:00,
2013-09-30 07:53:00,55.0,55.0,30.13,NNE,22,3.5,3.5,100,0.00,CLR,SKC,0.00,WeatherDisplay:10.37,2013-09-30 11:53:00,
2013-09-30 07:58:00,55.0,55.0,30.13,North,360,3.5,3.5,100,0.00,CLR,SKC,0.00,WeatherDisplay:10.37,2013-09-30 11:58:00,
2013-09-30 08:03:00,55.0,55.0,30.13,North,360,3.5,3.5,100,0.00,CLR,SKC,0.00,WeatherDisplay:10.37,2013-09-30 12:03:00,
2013-09-30 08:08:00,56.0,56.0,30.13,NE,45,3.5,3.5,100,0.00,CLR,SKC,0.00,WeatherDisplay:10.37,2013-09-30 12:08:00,
2013-09-30 08:13:00,56.0,56.0,30.13,NNE,22,4.6,4.6,100,0.00,CLR,SKC,0.00,WeatherDisplay:10.37,2013-09-30 12:13:00,
2013-09-30 08:18:00,56.0,56.0,30.13,NNE,22,0.0,0.0,100,0.00,CLR,SKC,0.00,WeatherDisplay:10.37,2013-09-30 12:18:00,
2013-09-30 08:23:00,57.0,57.0,30.12,NNE,22,4.0,4.0,100,0.00,CLR,SKC,0.00,WeatherDisplay:10.37,2013-09-30 12:23:00,
2013-09-30 08:28:00,57.0,57.0,30.12,ENE,67,4.6,4.6,100,0.00,CLR,SKC,0.00,WeatherDisplay:10.37,2013-09-30 12:28:00,
2013-09-30 08:33:00,57.0,57.0,30.11,NNE,22,6.0,6.0,100,0.00,CLR,SKC,0.00,WeatherDisplay:10.37,2013-09-30 12:33:00,
2013-09-30 08:38:00,57.0,57.0,30.11,NNE,22,4.6,4.6,100,0.00,CLR,SKC,0.00,WeatherDisplay:10.37,2013-09-30 12:38:00,
2013-09-30 08:43:00,57.0,57.0,30.11,NE,45,4.0,4.0,100,0.00,CLR,SKC,0.00,WeatherDisplay:10.37,2013-09-30 12:43:00,
2013-09-30 08:48:00,57.0,57.0,30.11,NNE,22,3.5,3.5,100,0.00,CLR,SKC,0.00,WeatherDisplay:10.37,2013-09-30 12:48:00,
2013-09-30 08:53:00,57.0,57.0,30.12,NNE,22,1.2,1.2,100,0.00,CLR,SKC,0.00,WeatherDisplay:10.37,2013-09-30 12:53:00,
2013-09-30 08:58:00,57.0,57.0,30.12,NNE,22,0.0,0.0,100,0.00,CLR,SKC,0.00,WeatherDisplay:10.37,2013-09-30 12:58:00,
2013-09-30 09:03:00,58.0,58.0,30.11,West,270,3.5,3.5,100,0.00,CLR,SKC,0.00,WeatherDisplay:10.37,2013-09-30 13:03:00,
2013-09-30 09:08:00,59.0,59.0,30.11,West,270,0.0,0.0,100,0.00,CLR,SKC,0.00,WeatherDisplay:10.37,2013-09-30 13:08:00,
2013-09-30 09:21:00,59.0,59.0,30.10,NE,45,4.0,0.0,100,0.00,CLR,SKC,0.00,WeatherDisplay:10.37,2013-09-30 13:21:00,
2013-09-30 09:26:00,58.0,58.0,30.10,NNE,22,5.8,5.8,100,0.00,CLR,SKC,0.00,WeatherDisplay:10.37,2013-09-30 13:26:00,
2013-09-30 09:31:00,58.0,58.0,30.10,NNE,22,1.2,0.0,100,0.00,CLR,SKC,0.00,WeatherDisplay:10.37,2013-09-30 13:31:00,
2013-09-30 09:36:00,59.0,59.0,30.10,West,270,3.5,3.5,100,0.00,CLR,SKC,0.00,WeatherDisplay:10.37,2013-09-30 13:36:00,
2013-09-30 09:41:00,60.0,60.0,30.10,SSE,157,2.3,2.3,100,0.00,CLR,SKC,0.00,WeatherDisplay:10.37,2013-09-30 13:41:00,
2013-09-30 09:46:00,59.0,59.0,30.10,SSE,157,2.0,0.0,100,0.00,CLR,SKC,0.00,WeatherDisplay:10.37,2013-09-30 13:46:00,
2013-09-30 09:51:00,60.0,60.0,30.10,ENE,67,3.5,3.5,100,0.00,CLR,SKC,0.00,WeatherDisplay:10.37,2013-09-30 13:51:00,
2013-09-30 09:56:00,61.0,61.0,30.10,WNW,292,3.5,3.5,100,0.00,CLR,SKC,0.00,WeatherDisplay:10.37,2013-09-30 13:56:00,
2013-09-30 10:01:00,62.0,62.0,30.07,NE,45,4.6,4.6,100,0.00,CLR,SKC,0.00,WeatherDisplay:10.37,2013-09-30 14:01:00,
2013-09-30 10:06:00,62.0,62.0,30.07,NNE,22,6.9,6.9,100,0.00,CLR,SKC,0.00,WeatherDisplay:10.37,2013-09-30 14:06:00,
2013-09-30 10:11:00,63.0,63.0,30.07,NNE,22,0.0,0.0,100,0.00,CLR,SKC,0.00,WeatherDisplay:10.37,2013-09-30 14:11:00,
2013-09-30 10:16:00,63.0,63.0,30.07,WNW,292,1.2,1.2,100,0.00,CLR,SKC,0.00,WeatherDisplay:10.37,2013-09-30 14:16:00,
2013-09-30 10:21:00,64.0,64.0,30.06,SE,135,4.0,4.0,100,0.00,CLR,SKC,0.00,WeatherDisplay:10.37,2013-09-30 14:21:00,
2013-09-30 10:26:00,64.0,64.0,30.06,East,90,2.0,2.0,100,0.00,CLR,SKC,0.00,WeatherDisplay:10.37,2013-09-30 14:26:00,
2013-09-30 10:31:00,65.0,65.0,30.06,NNE,22,3.5,3.5,100,0.00,CLR,SKC,0.00,WeatherDisplay:10.37,2013-09-30 14:31:00,
2013-09-30 10:36:00,65.0,65.0,30.06,NE,45,5.0,5.0,100,0.00,CLR,SKC,0.00,WeatherDisplay:10.37,2013-09-30 14:36:00,
2013-09-30 10:41:00,66.0,65.7,30.05,NE,45,3.5,3.5,99,0.00,CLR,SKC,0.00,WeatherDisplay:10.37,2013-09-30 14:41:00,
2013-09-30 10:46:00,67.0,64.9,30.05,NNE,22,5.0,5.0,93,0.00,CLR,SKC,0.00,WeatherDisplay:10.37,2013-09-30 14:46:00,
2013-09-30 10:51:00,66.0,63.3,30.04,NNE,22,5.8,5.8,91,0.00,CLR,SKC,0.00,WeatherDisplay:10.37,2013-09-30 14:51:00,
2013-09-30 10:57:00,67.0,64.0,30.04,ENE,67,4.0,4.0,90,0.00,CLR,SKC,0.00,WeatherDisplay:10.37,2013-09-30 14:57:00,
2013-09-30 11:02:00,67.0,63.6,30.04,ESE,112,5.0,5.0,89,0.00,CLR,SKC,0.00,WeatherDisplay:10.37,2013-09-30 15:02:00,
2013-09-30 11:07:00,67.0,64.3,30.04,West,270,3.0,3.0,91,0.00,CLR,SKC,0.00,WeatherDisplay:10.37,2013-09-30 15:07:00,
2013-09-30 11:12:00,67.0,63.0,30.05,ESE,112,5.0,5.0,87,0.00,CLR,SKC,0.00,WeatherDisplay:10.37,2013-09-30 15:12:00,
2013-09-30 11:17:00,67.0,63.0,30.05,NE,45,6.0,6.0,87,0.00,CLR,SKC,0.00,WeatherDisplay:10.37,2013-09-30 15:17:00,
2013-09-30 11:22:00,67.0,63.3,30.05,NE,45,4.6,4.6,88,0.00,CLR,SKC,0.00,WeatherDisplay:10.37,2013-09-30 15:22:00,
2013-09-30 11:27:00,68.0,62.6,30.05,NE,45,6.9,6.9,83,0.00,CLR,SKC,0.00,WeatherDisplay:10.37,2013-09-30 15:27:00,
2013-09-30 11:32:00,69.0,63.3,30.03,ENE,67,4.6,4.6,82,0.00,CLR,SKC,0.00,WeatherDisplay:10.37,2013-09-30 15:32:00,
2013-09-30 11:37:00,69.0,62.9,30.03,SE,135,3.5,3.5,81,0.00,CLR,SKC,0.00,WeatherDisplay:10.37,2013-09-30 15:37:00,
2013-09-30 11:42:00,70.0,63.9,30.02,NE,45,4.6,4.6,81,0.00,CLR,SKC,0.00,WeatherDisplay:10.37,2013-09-30 15:42:00,
2013-09-30 11:47:00,69.0,62.6,30.02,ENE,67,5.0,5.0,80,0.00,CLR,SKC,0.00,WeatherDisplay:10.37,2013-09-30 15:47:00,
2013-09-30 11:52:00,71.0,65.2,30.01,WSW,247,2.0,2.0,82,0.00,CLR,SKC,0.00,WeatherDisplay:10.37,2013-09-30 15:52:00,
2013-09-30 11:57:00,71.0,60.7,30.01,NNE,22,5.8,5.8,70,0.00,CLR,SKC,0.00,WeatherDisplay:10.37,2013-09-30 15:57:00,
2013-09-30 12:02:00,71.0,61.5,30.01,ESE,112,5.8,5.8,72,0.00,CLR,SKC,0.00,WeatherDisplay:10.37,2013-09-30 16:02:00,
2013-09-30 12:07:00,70.0,60.9,30.01,NNE,22,7.0,7.0,73,0.00,CLR,SKC,0.00,WeatherDisplay:10.37,2013-09-30 16:07:00,
2013-09-30 12:12:00,71.0,60.7,30.00,NNE,22,8.1,8.1,70,0.00,CLR,SKC,0.00,WeatherDisplay:10.37,2013-09-30 16:12:00,
2013-09-30 12:17:00,70.0,62.1,30.00,WNW,292,5.8,5.8,76,0.00,CLR,SKC,0.00,WeatherDisplay:10.37,2013-09-30 16:17:00,
2013-09-30 12:22:00,71.0,62.3,30.01,SW,225,3.5,3.5,74,0.00,CLR,SKC,0.00,WeatherDisplay:10.37,2013-09-30 16:22:00,
2013-09-30 12:27:00,70.0,60.9,30.01,SW,225,3.5,3.5,73,0.00,CLR,SKC,0.00,WeatherDisplay:10.37,2013-09-30 16:27:00,
2013-09-30 12:32:00,71.0,62.3,30.01,NW,315,3.5,3.5,74,0.00,CLR,SKC,0.00,WeatherDisplay:10.37,2013-09-30 16:32:00,
2013-09-30 12:37:00,71.0,61.1,30.01,NE,45,5.8,5.8,71,0.00,CLR,SKC,0.00,WeatherDisplay:10.37,2013-09-30 16:37:00,
2013-09-30 12:42:00,70.0,60.2,30.01,NNE,22,5.8,5.8,71,0.00,CLR,SKC,0.00,WeatherDisplay:10.37,2013-09-30 16:42:00,
2013-09-30 12:47:00,70.0,61.3,30.01,ENE,67,3.5,3.5,74,0.00,CLR,SKC,0.00,WeatherDisplay:10.37,2013-09-30 16:47:00,
2013-09-30 12:52:00,71.0,60.7,30.01,WNW,292,3.5,3.5,70,0.00,CLR,SKC,0.00,WeatherDisplay:10.37,2013-09-30 16:52:00,
2013-09-30 12:57:00,70.0,60.2,30.01,NNW,337,6.9,6.9,71,0.00,CLR,SKC,0.00,WeatherDisplay:10.37,2013-09-30 16:57:00,
2013-09-30 13:02:00,71.0,61.5,30.01,ENE,67,6.9,6.9,72,0.00,CLR,SKC,0.00,WeatherDisplay:10.37,2013-09-30 17:02:00,
2013-09-30 13:07:00,72.0,61.3,30.01,NNE,22,6.0,6.0,69,0.00,CLR,SKC,0.00,WeatherDisplay:10.37,2013-09-30 17:07:00,
2013-09-30 13:12:00,71.0,59.1,30.00,ENE,67,8.1,8.1,66,0.00,CLR,SKC,0.00,WeatherDisplay:10.37,2013-09-30 17:12:00,
2013-09-30 13:17:00,72.0,60.0,30.00,West,270,4.6,4.6,66,0.00,CLR,SKC,0.00,WeatherDisplay:10.37,2013-09-30 17:17:00,
2013-09-30 13:22:00,72.0,57.8,29.99,NNE,22,9.0,9.0,61,0.00,CLR,SKC,0.00,WeatherDisplay:10.37,2013-09-30 17:22:00,
2013-09-30 13:27:00,72.0,58.3,29.99,ESE,112,4.6,4.6,62,0.00,CLR,SKC,0.00,WeatherDisplay:10.37,2013-09-30 17:27:00,
2013-09-30 13:32:00,72.0,58.3,29.99,North,360,1.2,1.2,62,0.00,CLR,SKC,0.00,WeatherDisplay:10.37,2013-09-30 17:32:00,
2013-09-30 13:37:00,71.0,56.9,29.99,NE,45,8.1,8.1,61,0.00,CLR,SKC,0.00,WeatherDisplay:10.37,2013-09-30 17:37:00,
2013-09-30 13:42:00,73.0,59.2,29.99,SSW,202,5.0,5.0,62,0.00,CLR,SKC,0.00,WeatherDisplay:10.37,2013-09-30 17:42:00,
2013-09-30 13:47:00,73.0,58.8,29.99,NNE,22,8.0,8.0,61,0.00,CLR,SKC,0.00,WeatherDisplay:10.37,2013-09-30 17:47:00,
2013-09-30 13:52:00,72.0,58.7,29.97,ENE,67,4.6,4.6,63,0.00,CLR,SKC,0.00,WeatherDisplay:10.37,2013-09-30 17:52:00,
2013-09-30 13:57:00,70.0,59.0,29.97,NNE,22,4.6,4.6,68,0.00,CLR,SKC,0.00,WeatherDisplay:10.37,2013-09-30 17:57:00,
2013-09-30 14:02:00,71.0,59.5,29.98,NNW,337,3.5,3.5,67,0.00,CLR,SKC,0.00,WeatherDisplay:10.37,2013-09-30 18:02:00,
2013-09-30 14:07:00,73.0,59.7,29.98,SW,225,4.6,4.6,63,0.00,CLR,SKC,0.00,WeatherDisplay:10.37,2013-09-30 18:07:00,
2013-09-30 14:12:00,72.0,59.6,29.96,West,270,3.5,3.5,65,0.00,CLR,SKC,0.00,WeatherDisplay:10.37,2013-09-30 18:12:00,
2013-09-30 14:17:00,73.0,58.3,29.96,ENE,67,3.0,3.0,60,0.00,CLR,SKC,0.00,WeatherDisplay:10.37,2013-09-30 18:17:00,
2013-09-30 14:22:00,74.0,57.8,29.96,ENE,67,1.2,0.0,57,0.00,CLR,SKC,0.00,WeatherDisplay:10.37,2013-09-30 18:22:00,
2013-09-30 14:27:00,75.0,59.2,29.96,NNE,22,0.0,0.0,58,0.00,CLR,SKC,0.00,WeatherDisplay:10.37,2013-09-30 18:27:00,
2013-09-30 14:32:00,76.0,58.7,29.94,West,270,6.9,6.9,55,0.00,CLR,SKC,0.00,WeatherDisplay:10.37,2013-09-30 18:32:00,
2013-09-30 14:37:00,74.0,58.3,29.94,NE,45,9.2,9.2,58,0.00,CLR,SKC,0.00,WeatherDisplay:10.37,2013-09-30 18:37:00,
2013-09-30 14:42:00,73.0,58.8,29.94,WSW,247,5.8,5.8,61,0.00,CLR,SKC,0.00,WeatherDisplay:10.37,2013-09-30 18:42:00,
2013-09-30 14:47:00,73.0,58.3,29.94,SSW,202,3.5,3.5,60,0.00,CLR,SKC,0.00,WeatherDisplay:10.37,2013-09-30 18:47:00,
2013-09-30 14:52:00,74.0,58.8,29.94,ENE,67,6.9,6.9,59,0.00,CLR,SKC,0.00,WeatherDisplay:10.37,2013-09-30 18:52:00,
2013-09-30 14:57:00,74.0,59.7,29.94,WSW,247,3.5,3.5,61,0.00,CLR,SKC,0.00,WeatherDisplay:10.37,2013-09-30 18:57:00,
2013-09-30 15:02:00,75.0,60.2,29.93,WSW,247,4.0,4.0,60,0.00,CLR,SKC,0.00,WeatherDisplay:10.37,2013-09-30 19:02:00,
2013-09-30 15:07:00,74.0,58.8,29.93,NNW,337,4.0,4.0,59,0.00,CLR,SKC,0.00,WeatherDisplay:10.37,2013-09-30 19:07:00,
2013-09-30 15:12:00,75.0,58.2,29.93,SSE,157,5.8,5.8,56,0.00,CLR,SKC,0.00,WeatherDisplay:10.37,2013-09-30 19:12:00,
2013-09-30 15:17:00,76.0,59.7,29.93,North,360,3.5,3.5,57,0.00,CLR,SKC,0.00,WeatherDisplay:10.37,2013-09-30 19:17:00,
2013-09-30 15:22:00,75.0,57.7,29.92,North,360,6.9,6.9,55,0.00,CLR,SKC,0.00,WeatherDisplay:10.37,2013-09-30 19:22:00,
2013-09-30 15:27:00,74.0,58.3,29.92,North,360,8.1,8.1,58,0.00,CLR,SKC,0.00,WeatherDisplay:10.37,2013-09-30 19:27:00,
2013-09-30 15:32:00,73.0,57.8,29.93,NNE,22,9.2,9.2,59,0.00,CLR,SKC,0.00,WeatherDisplay:10.37,2013-09-30 19:32:00,
2013-09-30 15:37:00,73.0,57.8,29.93,ESE,112,5.8,5.8,59,0.00,CLR,SKC,0.00,WeatherDisplay:10.37,2013-09-30 19:37:00,
2013-09-30 15:42:00,73.0,57.8,29.93,NNE,22,6.9,6.9,59,0.00,CLR,SKC,0.00,WeatherDisplay:10.37,2013-09-30 19:42:00,
2013-09-30 15:47:00,73.0,57.8,29.93,WSW,247,5.8,5.8,59,0.00,CLR,SKC,0.00,WeatherDisplay:10.37,2013-09-30 19:47:00,
2013-09-30 15:52:00,73.0,58.3,29.94,West,270,5.8,5.8,60,0.00,CLR,SKC,0.00,WeatherDisplay:10.37,2013-09-30 19:52:00,
2013-09-30 15:57:00,73.0,57.3,29.94,North,360,4.6,4.6,58,0.00,CLR,SKC,0.00,WeatherDisplay:10.37,2013-09-30 19:57:00,
2013-09-30 16:02:00,73.0,57.3,29.93,ESE,112,2.3,2.3,58,0.00,CLR,SKC,0.00,WeatherDisplay:10.37,2013-09-30 20:02:00,
2013-09-30 16:07:00,74.0,57.8,29.93,SW,225,3.5,3.5,57,0.00,CLR,SKC,0.00,WeatherDisplay:10.37,2013-09-30 20:07:00,
2013-09-30 16:12:00,75.0,58.7,29.92,NNE,22,3.5,3.5,57,0.00,CLR,SKC,0.00,WeatherDisplay:10.37,2013-09-30 20:12:00,
2013-09-30 16:17:00,75.0,59.2,29.92,North,360,1.2,1.2,58,0.00,CLR,SKC,0.00,WeatherDisplay:10.37,2013-09-30 20:17:00,
2013-09-30 16:22:00,75.0,58.2,29.92,NW,315,4.0,4.0,56,0.00,CLR,SKC,0.00,WeatherDisplay:10.37,2013-09-30 20:22:00,
2013-09-30 16:27:00,74.0,57.3,29.92,SSE,157,6.9,6.9,56,0.00,CLR,SKC,0.00,WeatherDisplay:10.37,2013-09-30 20:27:00,
2013-09-30 16:32:00,74.0,57.3,29.92,WSW,247,3.5,3.5,56,0.00,CLR,SKC,0.00,WeatherDisplay:10.37,2013-09-30 20:32:00,
2013-09-30 16:37:00,74.0,57.8,29.92,West,270,3.5,3.5,57,0.00,CLR,SKC,0.00,WeatherDisplay:10.37,2013-09-30 20:37:00,
2013-09-30 16:42:00,75.0,58.7,29.92,South,180,3.5,3.5,57,0.00,CLR,SKC,0.00,WeatherDisplay:10.37,2013-09-30 20:42:00,
2013-09-30 16:47:00,75.0,58.2,29.92,NNE,22,4.0,4.0,56,0.00,CLR,SKC,0.00,WeatherDisplay:10.37,2013-09-30 20:47:00,
2013-09-30 16:52:00,74.0,57.3,29.92,East,90,4.0,4.0,56,0.00,CLR,SKC,0.00,WeatherDisplay:10.37,2013-09-30 20:52:00,
2013-09-30 16:57:00,73.0,57.3,29.92,NNE,22,6.9,6.9,58,0.00,CLR,SKC,0.00,WeatherDisplay:10.37,2013-09-30 20:57:00,
2013-09-30 17:02:00,73.0,58.3,29.93,North,360,3.5,3.6,60,0.00,CLR,SKC,0.00,WeatherDisplay:10.37,2013-09-30 21:02:00,
2013-09-30 17:07:00,72.0,56.9,29.93,ENE,67,9.2,9.2,59,0.00,CLR,SKC,0.00,WeatherDisplay:10.37,2013-09-30 21:07:00,
2013-09-30 17:12:00,72.0,56.9,29.95,North,360,9.0,9.0,59,0.00,CLR,SKC,0.00,WeatherDisplay:10.37,2013-09-30 21:12:00,
2013-09-30 17:17:00,71.0,56.9,29.95,North,360,5.8,5.8,61,0.00,CLR,SKC,0.00,WeatherDisplay:10.37,2013-09-30 21:17:00,
2013-09-30 17:22:00,71.0,56.4,29.96,NNE,22,8.1,8.1,60,0.00,CLR,SKC,0.00,WeatherDisplay:10.37,2013-09-30 21:22:00,
2013-09-30 17:27:00,71.0,56.9,29.96,ENE,67,1.2,1.2,61,0.00,CLR,SKC,0.00,WeatherDisplay:10.37,2013-09-30 21:27:00,
2013-09-30 17:32:00,71.0,56.9,29.97,NNE,22,3.5,3.5,61,0.00,CLR,SKC,0.00,WeatherDisplay:10.37,2013-09-30 21:32:00,
2013-09-30 17:37:00,70.0,55.9,29.97,NNE,22,4.6,4.6,61,0.00,CLR,SKC,0.00,WeatherDisplay:10.37,2013-09-30 21:37:00,
2013-09-30 17:42:00,70.0,56.4,29.98,NNE,22,4.0,4.0,62,0.00,CLR,SKC,0.00,WeatherDisplay:10.37,2013-09-30 21:42:00,
2013-09-30 17:47:00,70.0,56.8,29.98,NNE,22,2.3,2.3,63,0.00,CLR,SKC,0.00,WeatherDisplay:10.37,2013-09-30 21:47:00,
2013-09-30 17:53:00,70.0,57.3,29.98,ESE,112,3.5,3.5,64,0.00,CLR,SKC,0.00,WeatherDisplay:10.37,2013-09-30 21:53:00,
2013-09-30 17:58:00,70.0,56.8,29.98,SE,135,3.5,3.5,63,0.00,CLR,SKC,0.00,WeatherDisplay:10.37,2013-09-30 21:58:00,
2013-09-30 18:03:00,70.0,57.7,29.99,SE,135,3.5,3.5,65,0.00,CLR,SKC,0.00,WeatherDisplay:10.37,2013-09-30 22:03:00,
2013-09-30 18:08:00,70.0,56.8,29.99,SE,135,3.5,3.5,63,0.00,CLR,SKC,0.00,WeatherDisplay:10.37,2013-09-30 22:08:00,
2013-09-30 18:13:00,69.0,56.7,29.99,SE,135,2.0,2.0,65,0.00,CLR,SKC,0.00,WeatherDisplay:10.37,2013-09-30 22:13:00,
2013-09-30 18:18:00,69.0,57.6,29.99,SE,135,0.0,0.0,67,0.00,CLR,SKC,0.00,WeatherDisplay:10.37,2013-09-30 22:18:00,
2013-09-30 18:23:00,68.0,57.0,30.00,SE,135,0.0,0.0,68,0.00,CLR,SKC,0.00,WeatherDisplay:10.37,2013-09-30 22:23:00,
2013-09-30 18:28:00,68.0,57.4,30.00,SE,135,0.0,0.0,69,0.00,CLR,SKC,0.00,WeatherDisplay:10.37,2013-09-30 22:28:00,
2013-09-30 18:33:00,67.0,57.7,30.00,SE,135,0.0,0.0,72,0.00,CLR,SKC,0.00,WeatherDisplay:10.37,2013-09-30 22:33:00,
2013-09-30 18:38:00,67.0,58.4,30.00,SE,135,0.0,0.0,74,0.00,CLR,SKC,0.00,WeatherDisplay:10.37,2013-09-30 22:38:00,
2013-09-30 18:43:00,66.0,58.6,30.02,SE,135,0.0,0.0,77,0.00,CLR,SKC,0.00,WeatherDisplay:10.37,2013-09-30 22:43:00,
2013-09-30 18:48:00,65.0,57.6,30.02,SE,135,0.0,0.0,77,0.00,CLR,SKC,0.00,WeatherDisplay:10.37,2013-09-30 22:48:00,
2013-09-30 18:53:00,65.0,60.7,30.02,WSW,247,2.3,2.3,86,0.00,CLR,SKC,0.00,WeatherDisplay:10.37,2013-09-30 22:53:00,
2013-09-30 18:58:00,64.0,59.7,30.02,WSW,247,2.3,2.3,86,0.00,CLR,SKC,0.00,WeatherDisplay:10.37,2013-09-30 22:58:00,
2013-09-30 19:03:00,64.0,60.4,30.03,WSW,247,2.3,2.3,88,0.00,CLR,SKC,0.00,WeatherDisplay:10.37,2013-09-30 23:03:00,
2013-09-30 19:08:00,63.0,59.7,30.03,WSW,247,0.0,0.0,89,0.00,CLR,SKC,0.00,WeatherDisplay:10.37,2013-09-30 23:08:00,
2013-09-30 19:13:00,63.0,60.0,30.03,WSW,247,0.0,0.0,90,0.00,CLR,SKC,0.00,WeatherDisplay:10.37,2013-09-30 23:13:00,
2013-09-30 19:18:00,62.0,59.0,30.03,WSW,247,0.0,0.0,90,0.00,CLR,SKC,0.00,WeatherDisplay:10.37,2013-09-30 23:18:00,
2013-09-30 19:23:00,62.0,59.6,30.05,WSW,247,0.0,0.0,92,0.00,CLR,SKC,0.00,WeatherDisplay:10.37,2013-09-30 23:23:00,
2013-09-30 19:28:00,61.0,59.3,30.05,WSW,247,0.0,0.0,94,0.00,CLR,SKC,0.00,WeatherDisplay:10.37,2013-09-30 23:28:00,
2013-09-30 19:33:00,61.0,59.0,30.05,WSW,247,0.0,0.0,93,0.00,CLR,SKC,0.00,WeatherDisplay:10.37,2013-09-30 23:33:00,
2013-09-30 19:38:00,61.0,59.6,30.05,WSW,247,0.0,0.0,95,0.00,CLR,SKC,0.00,WeatherDisplay:10.37,2013-09-30 23:38:00,
2013-09-30 19:43:00,61.0,59.6,30.06,WSW,247,2.3,2.3,95,0.00,CLR,SKC,0.00,WeatherDisplay:10.37,2013-09-30 23:43:00,
2013-09-30 19:48:00,61.0,60.7,30.06,WSW,247,1.2,1.2,99,0.00,CLR,SKC,0.00,WeatherDisplay:10.37,2013-09-30 23:48:00,
2013-09-30 19:53:00,60.0,59.4,30.06,WSW,247,0.0,0.0,98,0.00,CLR,SKC,0.00,WeatherDisplay:10.37,2013-09-30 23:53:00,
2013-09-30 19:58:00,60.0,60.0,30.06,WSW,247,0.0,0.0,100,0.00,CLR,SKC,0.00,WeatherDisplay:10.37,2013-09-30 23:58:00,
2013-09-30 20:03:00,60.0,59.7,30.07,WSW,247,0.0,0.0,99,0.00,CLR,SKC,0.00,WeatherDisplay:10.37,2013-10-01 00:03:00,
2013-09-30 20:08:00,60.0,60.0,30.07,WSW,247,0.0,0.0,100,0.00,CLR,SKC,0.00,WeatherDisplay:10.37,2013-10-01 00:08:00,
2013-09-30 20:13:00,59.0,59.0,30.07,WSW,247,0.0,0.0,100,0.00,CLR,SKC,0.00,WeatherDisplay:10.37,2013-10-01 00:13:00,
2013-09-30 20:18:00,59.0,59.0,30.07,WSW,247,0.0,0.0,100,0.00,CLR,SKC,0.00,WeatherDisplay:10.37,2013-10-01 00:18:00,
2013-09-30 20:23:00,59.0,59.0,30.08,WSW,247,0.0,0.0,100,0.00,CLR,SKC,0.00,WeatherDisplay:10.37,2013-10-01 00:23:00,
2013-09-30 20:28:00,59.0,59.0,30.08,WSW,247,0.0,0.0,100,0.00,CLR,SKC,0.00,WeatherDisplay:10.37,2013-10-01 00:28:00,
2013-09-30 20:33:00,59.0,59.0,30.08,WSW,247,0.0,0.0,100,0.00,CLR,SKC,0.00,WeatherDisplay:10.37,2013-10-01 00:33:00,
2013-09-30 20:38:00,58.0,58.0,30.08,WSW,247,2.3,2.3,100,0.00,CLR,SKC,0.00,WeatherDisplay:10.37,2013-10-01 00:38:00,
2013-09-30 20:43:00,59.0,59.0,30.08,WSW,247,1.2,1.2,100,0.00,CLR,SKC,0.00,WeatherDisplay:10.37,2013-10-01 00:43:00,
2013-09-30 20:48:00,58.0,58.0,30.08,WSW,247,0.0,0.0,100,0.00,CLR,SKC,0.00,WeatherDisplay:10.37,2013-10-01 00:48:00,
2013-09-30 20:53:00,58.0,58.0,30.08,WSW,247,0.0,0.0,100,0.00,CLR,SKC,0.00,WeatherDisplay:10.37,2013-10-01 00:53:00,
2013-09-30 20:58:00,58.0,58.0,30.08,WSW,247,1.2,0.0,100,0.00,CLR,SKC,0.00,WeatherDisplay:10.37,2013-10-01 00:58:00,
2013-09-30 21:03:00,58.0,58.0,30.09,WSW,247,0.0,0.0,100,0.00,CLR,SKC,0.00,WeatherDisplay:10.37,2013-10-01 01:03:00,
2013-09-30 21:08:00,58.0,58.0,30.09,WSW,247,3.5,3.5,100,0.00,CLR,SKC,0.00,WeatherDisplay:10.37,2013-10-01 01:08:00,
2013-09-30 21:13:00,58.0,58.0,30.09,WSW,247,2.3,2.3,100,0.00,CLR,SKC,0.00,WeatherDisplay:10.37,2013-10-01 01:13:00,
2013-09-30 21:18:00,58.0,58.0,30.09,WSW,247,2.3,2.3,100,0.00,CLR,SKC,0.00,WeatherDisplay:10.37,2013-10-01 01:18:00,
2013-09-30 21:23:00,57.0,57.0,30.09,WSW,247,2.3,2.3,100,0.00,CLR,SKC,0.00,WeatherDisplay:10.37,2013-10-01 01:23:00,
2013-09-30 21:28:00,57.0,57.0,30.09,WSW,247,0.0,0.0,100,0.00,CLR,SKC,0.00,WeatherDisplay:10.37,2013-10-01 01:28:00,
2013-09-30 21:33:00,57.0,57.0,30.09,WSW,247,0.0,0.0,100,0.00,CLR,SKC,0.00,WeatherDisplay:10.37,2013-10-01 01:33:00,
2013-09-30 21:38:00,57.0,57.0,30.09,WSW,247,2.3,2.3,100,0.00,CLR,SKC,0.00,WeatherDisplay:10.37,2013-10-01 01:38:00,
2013-09-30 21:43:00,57.0,57.0,30.11,WSW,247,3.5,3.5,100,0.00,CLR,SKC,0.00,WeatherDisplay:10.37,2013-10-01 01:43:00,
2013-09-30 21:48:00,57.0,57.0,30.11,WSW,247,2.3,2.3,100,0.00,CLR,SKC,0.00,WeatherDisplay:10.37,2013-10-01 01:48:00,
2013-09-30 21:54:00,56.0,56.0,30.11,WSW,247,1.2,1.2,100,0.00,CLR,SKC,0.00,WeatherDisplay:10.37,2013-10-01 01:54:00,
2013-09-30 21:59:00,56.0,56.0,30.11,WSW,247,0.0,0.0,100,0.00,CLR,SKC,0.00,WeatherDisplay:10.37,2013-10-01 01:59:00,
2013-09-30 22:04:00,56.0,56.0,30.11,WSW,247,0.0,0.0,100,0.00,CLR,SKC,0.00,WeatherDisplay:10.37,2013-10-01 02:04:00,
2013-09-30 22:09:00,56.0,56.0,30.11,WSW,247,0.0,0.0,100,0.00,CLR,SKC,0.00,WeatherDisplay:10.37,2013-10-01 02:09:00,
2013-09-30 22:14:00,56.0,56.0,30.11,WSW,247,2.3,2.3,100,0.00,CLR,SKC,0.00,WeatherDisplay:10.37,2013-10-01 02:14:00,
2013-09-30 22:19:00,56.0,56.0,30.11,WSW,247,0.0,0.0,100,0.00,CLR,SKC,0.00,WeatherDisplay:10.37,2013-10-01 02:19:00,
2013-09-30 22:24:00,56.0,56.0,30.11,WSW,247,0.0,0.0,100,0.00,CLR,SKC,0.00,WeatherDisplay:10.37,2013-10-01 02:24:00,
2013-09-30 22:29:00,56.0,56.0,30.11,WSW,247,0.0,0.0,100,0.00,CLR,SKC,0.00,WeatherDisplay:10.37,2013-10-01 02:29:00,
2013-09-30 22:34:00,56.0,56.0,30.11,WSW,247,0.0,0.0,100,0.00,CLR,SKC,0.00,WeatherDisplay:10.37,2013-10-01 02:34:00,
2013-09-30 22:39:00,55.0,55.0,30.11,WSW,247,0.0,0.0,100,0.00,CLR,SKC,0.00,WeatherDisplay:10.37,2013-10-01 02:39:00,
2013-09-30 22:44:00,55.0,55.0,30.11,WSW,247,0.0,0.0,100,0.00,CLR,SKC,0.00,WeatherDisplay:10.37,2013-10-01 02:44:00,
2013-09-30 22:49:00,55.0,55.0,30.11,WSW,247,3.5,3.5,100,0.00,CLR,SKC,0.00,WeatherDisplay:10.37,2013-10-01 02:49:00,
2013-09-30 22:54:00,55.0,55.0,30.11,WSW,247,1.2,1.2,100,0.00,CLR,SKC,0.00,WeatherDisplay:10.37,2013-10-01 02:54:00,
2013-09-30 22:59:00,55.0,55.0,30.11,WSW,247,2.3,2.3,100,0.00,CLR,SKC,0.00,WeatherDisplay:10.37,2013-10-01 02:59:00,
2013-09-30 23:04:00,55.0,55.0,30.11,WSW,247,3.5,3.5,100,0.00,CLR,SKC,0.00,WeatherDisplay:10.37,2013-10-01 03:04:00,
2013-09-30 23:09:00,55.0,55.0,30.11,WSW,247,3.5,3.5,100,0.00,CLR,SKC,0.00,WeatherDisplay:10.37,2013-10-01 03:09:00,
2013-09-30 23:14:00,55.0,55.0,30.12,WSW,247,3.5,3.5,100,0.00,CLR,SKC,0.00,WeatherDisplay:10.37,2013-10-01 03:14:00,
2013-09-30 23:19:00,55.0,55.0,30.12,WSW,247,2.3,2.3,100,0.00,CLR,SKC,0.00,WeatherDisplay:10.37,2013-10-01 03:19:00,
2013-09-30 23:24:00,55.0,55.0,30.12,WSW,247,3.5,3.5,100,0.00,CLR,SKC,0.00,WeatherDisplay:10.37,2013-10-01 03:24:00,
2013-09-30 23:29:00,55.0,55.0,30.12,WSW,247,2.3,2.3,100,0.00,CLR,SKC,0.00,WeatherDisplay:10.37,2013-10-01 03:29:00,
2013-09-30 23:34:00,55.0,55.0,30.12,WSW,247,2.3,2.3,100,0.00,CLR,SKC,0.00,WeatherDisplay:10.37,2013-10-01 03:34:00,
2013-09-30 23:39:00,55.0,55.0,30.12,WSW,247,2.3,2.3,100,0.00,CLR,SKC,0.00,WeatherDisplay:10.37,2013-10-01 03:39:00,
2013-09-30 23:44:00,54.0,54.0,30.12,WSW,247,3.0,3.0,100,0.00,CLR,SKC,0.00,WeatherDisplay:10.37,2013-10-01 03:44:00,
2013-09-30 23:49:00,54.0,54.0,30.12,WSW,247,2.3,2.3,100,0.00,CLR,SKC,0.00,WeatherDisplay:10.37,2013-10-01 03:49:00,
2013-09-30 23:54:00,54.0,54.0,30.12,WSW,247,2.3,0.0,100,0.00,CLR,SKC,0.00,WeatherDisplay:10.37,2013-10-01 03:54:00,
2013-09-30 23:59:00,54.0,54.0,30.12,WSW,247,1.2,1.2,100,0.00,CLR,SKC,0.00,WeatherDisplay:10.37,2013-10-01 03:59:00,